Dauntless Aviation
Airports South America Argentina
SABE
AEP

Aeroparque Jorge Newbery

Buenos Aires, ARGENTINA

Airport Info
Suggest Updated Information for this Airport

Location

Latitude / Longitude: 34°33'33"S / 58°24'56"W
  34°33.552'S / 58°24.936'W
  -34.5592 / -58.4156

Nearby radio navigation aids

FDO SAN FERNANDO VOR/DME. 132.7° 10.6nm from FDO to field.
OP AEROPARQUE JORGE NEWBERY NDB. 131.1° 4.3nm from OP to field.

Runway Information

Runway 13 /31

Dimensions: 6890 x 131 ft.
Surface: ASP
 
Runway 13
Runway 31
Latitude: -34.553942 -34.563844
Longitude: -58.425247 -58.407506
Elevation: 18 ft. 18 ft.
Runway true heading: 126.3 306.3
 

Instrument Procedures

  Aerodrome Chart

STARs (Standard Terminal Arrivals)

  STAR Rwy 13/16 SARGO7C KOVUK7C TENIL7C BELGRANO7C
  STAR Rwy 13/16 PAGON7C SAN ANTONIO7C ASADA7C VALOS8C
  STAR Rwy 13/16 SURBO7A KUKEN1C PAPIX1C
  STAR Rwy 31 SURBO2B SARGO7D KOVUK7D TENIL7D BELGRANO7D VALOS7D ASADA7D
  STAR Rwy 31 PAGON7D SAN ANTONIO7D

IAPs (Instrument Approach Procedures)

  VOR (DME) ILS Rwy 13
  VOR (DMS) ILS (DME) Rwy 13
  LI ILS (DME) Rwy 13
  VOR (DME) LO LI Rwy 13
  LI LO LI Rwy 13
  LI Rwy 31
  LI Rwy 31

Departure Procedures

  SID Rwy 13/31 LANDA3B VIBAM38 ATOVO38
  SID Rwy 13/31 EZEIZA8
  SID Rwy 13/31 EL PALOMAR 8
  SID Rwy 13/31 KUKEN7 SURBO7 DORVO7 LA PLAYA7
Satellite photo at:
Airport distance calculator
From:
Weather Reports

METAR

SABE

SABE 240200Z 07003KT 050V120 CAVOK 17/15 Q1013
SADF
10.6nm W
SADF 240200Z 00000KT CAVOK 16/14 Q1013
SAEZ
16.2nm S
SAEZ 240200Z 20004KT 7000 NSC 13/11 Q1013

TAF

SABE
TAF SABE 232300Z 2400/2424 11010KT CAVOK TX19/2418Z TN15/2409Z BECMG 2408/2410 02005KT 7000 SCT030 SCT100 BECMG 2413/2415 09010KT 9999 BKN035 BKN100 BECMG 2420/2423 7000 -RA BKN030 OVC055
SADF
10.6nm W
TAF SADF 232300Z 2400/2424 09005KT CAVOK TX19/2418Z TN14/2410Z BECMG 2406/2409 5000 BR SCT020 SCT100 BECMG 2412/2414 02005KT 9999 BKN020 BKN100 BECMG 2420/2423 7000 -RADZ BKN015 OVC055
SAEZ
16.2nm S
TAF SAEZ 232300Z 2400/2424 10005KT CAVOK TX21/2418Z TN13/2409Z BECMG 2405/2407 VRB03KT 5000 BR PROB30 TEMPO 2408/2411 0700 FG BECMG 2413/2415 7000 BKN020 BECMG 2421/2422 15005KT 9999 OVC030
SUCA
32.8nm NE
SUCA 232330Z 2400/2424 08005KT CAVOK TX20/2418Z TN14/2410Z PROB40 TEMPO 2404/2411 2000 BR NSC BECMG 2414/2416 02010KT 9999 BKN026 BKN060
Safelog

 

Dauntless Aviation

© 2007-2017 Dauntless Aviation, all rights reserved
Information provided via PilotNav comes from a variety of official and unofficial data sources. As errors are possible, do not use PilotNav for primary flight planning purposes. Verify any information that you receive via PilotNav with current and canonical charts and other official documents. The material in this database is subject to database copyrights held by Dauntless Aviation and may not be copied without the express permission of Dauntless Aviation - licenses for use of part of all of this data are available for purchase; enquire via the Dauntless Aviation helpdesk. A number of mechanisms and markers exist in the database to protect against and identify infringement / copyright. Automated queries against this website are stictly prohibited, and all activity is logged and analyzed.